Weather observations for the past three days for
Red Wing - Red Wing Regional Airport
Imperial (Metric)
Date Time (cdt) Wind (mph) Vis. (mi.) Weather Sky Cond. Temperature (ºF) Relative Humidity Wind Chill (°F) Heat Index (°F) Pressure Precipitation (in)
Air Dwpt 6 hour altimeter (in) sea level (mb) 1 hr 3 hr 6 hr
Max. Min.
12 21:55 Calm 10.00 Fair CLR 73.4 64.4 74% 29.71 0.0
12 21:35 S 6 10.00 Fair CLR 73.4 64.4 74% 29.71 0.0
12 21:15 Calm 10.00 Thunderstorm in Vicinity CLR 73.4 64.4 74% 29.71 0.0
12 20:55 SW 7 10.00 Fair CLR 75.2 62.6 65% 77 29.69 0.0
12 20:35 SW 7 10.00 Fair CLR 75.2 62.6 65% 77 29.68 0.0
12 20:15 SW 9 10.00 Fair CLR 75.2 62.6 65% 77 29.69 0.0
12 19:55 SW 7 10.00 Fair CLR 75.2 62.6 65% 77 29.69 0.0
12 19:35 SW 10 G 18 10.00 Fair CLR 75.2 62.6 65% 77 29.69 0.0
12 19:15 SW 15 G 22 10.00 Fair CLR 77 62.6 61% 79 29.67 0.0
12 18:55 S 9 G 16 10.00 Fair CLR 77 62.6 61% 79 29.68 0.0
12 18:35 S 8 10.00 Fair CLR 77 62.6 61% 79 29.69 0.0
12 18:15 S 13 10.00 Fair CLR 77 62.6 61% 79 29.7 0.0
12 17:55 S 7 10.00 Fair CLR 78.8 64.4 61% 81 29.72 0.0
12 17:35 S 6 10.00 Fair CLR 78.8 62.6 58% 80 29.73 0.0
12 17:15 SE 14 G 20 10.00 Fair CLR 78.8 62.6 58% 80 29.73 0.0
12 16:55 SE 12 10.00 Fair CLR 78.8 64.4 61% 81 29.74 0.0
12 16:35 SE 7 10.00 Partly Cloudy SCT090 75.2 64.4 69% 77 29.75 0.0
12 16:15 SE 9 10.00 Mostly Cloudy BKN090 73.4 62.6 69% 29.76 0.0
12 15:55 SE 9 10.00 Thunderstorm in Vicinity SCT055 BKN090 71.6 62.6 73% 29.77 0.0
12 15:35 E 3 10.00 Rain SCT050 SCT055 OVC090 71.6 60.8 69% 29.79 0.0
12 15:15 Calm 10.00 Thunderstorm BKN100 69.8 60.8 73% 29.79 0.0
12 14:55 SW 6 7.00 Light Rain SCT100 71.6 60.8 69% 29.76 0.0
12 14:35 S 8 G 17 10.00 Thunderstorm SCT100 69.8 59 69% 29.76 0.0
12 14:15 S 6 10.00 Fair CLR 69.8 59 69% 29.78 0.0
12 13:55 S 6 G 21 10.00 Light Rain SCT110 69.8 59 69% 29.79 0.0
12 13:35 SE 16 G 26 10.00 Light Rain SCT110 69.8 59 69% 29.79 0.0
12 13:15 S 22 G 30 10.00 Light Rain and Breezy SCT035 SCT110 69.8 59 69% 29.78 0.0
12 12:35 S 16 G 22 7.00 Rain SCT026 BKN036 OVC075 66.2 60.8 83% 29.81 0.0
12 12:15 S 18 4.00 Heavy Rain SCT026 BKN032 OVC040 64.4 60.8 88% 29.82 0.0 0.01
12 11:55 S 3 2.00 Heavy Rain SCT028 BKN035 OVC049 64.4 60.8 88% 29.89 0.0 0.01
12 11:35 W 9 7.00 Rain SCT035 BKN050 OVC110 64.4 60.8 88% 29.9 0.0
12 11:15 NW 10 10.00 Overcast OVC110 64.4 60.8 88% 29.85 0.0
12 10:55 Calm 10.00 Thunderstorm Light Rain in Vicinity SCT045 SCT060 BKN110 66.2 60.8 83% 29.81 0.0
12 10:35 NE 6 10.00 Thunderstorm Light Rain in Vicinity SCT044 SCT055 BKN110 68 59 73% 29.8 0.0
12 10:15 NE 3 10.00 Light Rain SCT050 BKN110 71.6 57.2 61% 29.81 0.0
12 09:55 Calm 10.00 Partly Cloudy SCT120 71.6 57.2 61% 29.79 0.0
12 09:35 E 3 10.00 Fair CLR 71.6 57.2 61% 29.79 0.0
12 09:15 SE 5 10.00 Partly Cloudy SCT110 71.6 57.2 61% 29.79 0.0
12 08:55 SE 7 10.00 Fair CLR 69.8 55.4 60% 29.79 0.0
12 08:35 SE 7 10.00 Fair CLR 71.6 55.4 57% 29.8 0.0
12 08:15 SE 7 10.00 Partly Cloudy SCT110 68 57.2 69% 29.81 0.0
12 07:55 SE 7 10.00 Mostly Cloudy BKN110 68 55.4 64% 29.79 0.0
12 07:35 SE 6 10.00 Mostly Cloudy BKN110 64.4 57.2 78% 29.79 0.0
12 07:15 E 6 10.00 Partly Cloudy SCT110 64.4 57.2 78% 29.8 0.0
12 06:55 E 3 10.00 Fair CLR 60.8 57.2 88% 29.81 0.0
12 06:35 Calm 10.00 Fair CLR 57.2 55.4 94% 29.83 0.0
12 06:15 Calm 10.00 Fair CLR 55.4 51.8 88% 29.83 0.0
12 05:55 Calm 10.00 Fair CLR 53.6 51.8 94% 29.83 0.0
12 05:35 Calm 10.00 Fair CLR 53.6 51.8 94% 29.83 0.0
12 05:15 Calm 10.00 Fair CLR 53.6 51.8 94% 29.83 0.0
12 04:55 Calm 10.00 Fair CLR 53.6 51.8 94% 29.83 0.0
12 04:35 Calm 10.00 Fair CLR 53.6 51.8 94% 29.83 0.0
12 04:15 Calm 10.00 Fair CLR 53.6 51.8 94% 29.83 0.0
12 03:55 Calm 10.00 Fair CLR 53.6 51.8 94% 29.83 0.0
12 03:35 Calm 10.00 Fair CLR 55.4 51.8 88% 29.83 0.0
12 03:15 Calm 10.00 Fair CLR 55.4 53.6 94% 29.83 0.0
12 02:55 Calm 10.00 Fair CLR 55.4 51.8 88% 29.83 0.0
12 02:35 Calm 10.00 Fair CLR 55.4 53.6 94% 29.82 0.0
12 02:15 Calm 10.00 Fair CLR 57.2 53.6 88% 29.82 0.0
12 01:55 Calm 10.00 Fair CLR 57.2 53.6 88% 29.82 0.0
12 01:35 Calm 10.00 Fair CLR 57.2 53.6 88% 29.81 0.0
12 01:15 Calm 10.00 Fair CLR 57.2 53.6 88% 29.81 0.0
12 00:55 Calm 10.00 Fair CLR 59 55.4 88% 29.81 0.0
12 00:35 Calm 10.00 Fair CLR 59 55.4 88% 29.8 0.0
12 00:15 Calm 10.00 Fair CLR 59 53.6 82% 29.8 0.0
11 23:55 Calm 10.00 Fair CLR 60.8 55.4 83% 29.8 0.0
11 23:35 Calm 10.00 Fair CLR 60.8 55.4 83% 29.8 0.0
11 23:15 Calm 10.00 Fair CLR 60.8 55.4 83% 29.8 0.0
11 22:55 Calm 10.00 Fair CLR 60.8 55.4 83% 29.8 0.0
11 22:35 Calm 10.00 Fair CLR 62.6 55.4 77% 29.8 0.0
11 22:15 Calm 10.00 Fair CLR 62.6 55.4 77% 29.79 0.0
11 21:55 Calm 10.00 Fair CLR 64.4 55.4 73% 29.79 0.0
11 21:35 Calm 10.00 Fair CLR 64.4 57.2 78% 29.79 0.0
11 21:15 Calm 10.00 Fair CLR 68 57.2 69% 29.78 0.0
11 20:55 Calm 10.00 Fair CLR 71.6 57.2 61% 29.78 0.0
11 20:35 Calm 10.00 Fair CLR 0 0 0% 29.77 0.0
11 20:15 Calm 10.00 Fair CLR 0 0 0% 29.77 0.0
11 19:55 Calm 10.00 Fair CLR 0 0 0% 29.77 0.0
11 19:35 NW 3 10.00 Fair CLR 0 0 0% 29.77 0.0
11 19:15 NW 6 10.00 Fair CLR 0 0 0% 29.76 0.0
11 18:55 NW 6 10.00 Fair CLR 0 0 0% 29.76 0.0
11 18:35 NW 8 G 18 10.00 Fair CLR 0 0 0% 29.76 0.0
11 18:15 NW 9 10.00 Partly Cloudy SCT075 0 0 0% 29.75 0.0
11 17:55 W 14 10.00 Partly Cloudy SCT075 0 0 0% 29.75 0.0
11 17:35 NW 7 10.00 Partly Cloudy SCT075 0 0 0% 29.75 0.0
11 17:15 W 9 10.00 Partly Cloudy SCT075 0 0 0% 29.75 0.0
11 16:55 W 7 10.00 Partly Cloudy SCT075 0 0 0% 29.76 0.0
11 16:35 NW 6 10.00 Partly Cloudy SCT075 0 0 0% 29.76 0.0
11 16:15 W 5 10.00 Fair CLR 0 0 0% 29.76 0.0
11 15:55 NW 6 10.00 Partly Cloudy SCT060 0 0 0% 29.76 0.0
11 15:35 W 7 10.00 Partly Cloudy SCT060 SCT080 SCT090 0 0 0% 29.77 0.0
11 15:15 SW 5 10.00 Partly Cloudy SCT060 0 0 0% 29.77 0.0
11 14:55 SW 5 10.00 Partly Cloudy SCT050 0 0 0% 29.78 0.0
11 14:35 W 3 10.00 Fair CLR 0 0 0% 29.78 0.0
11 14:15 SW 6 10.00 Fair CLR 0 0 0% 29.79 0.0
11 13:55 SW 7 10.00 Partly Cloudy SCT042 75.2 57.2 54% 78 29.8 0.0
11 13:35 SW 8 G 16 10.00 Mostly Cloudy BKN040 75.2 55.4 50% 78 29.8 0.0
11 13:15 SW 9 10.00 Overcast OVC040 71.6 55.4 57% 29.81 0.0
11 12:55 S 8 10.00 Overcast OVC040 69.8 53.6 57% 29.82 0.0
11 12:35 S 6 10.00 Overcast BKN040 OVC046 69.8 53.6 57% 29.83 0.0
11 12:15 S 8 G 16 10.00 Mostly Cloudy BKN045 BKN065 69.8 53.6 57% 29.83 0.0
11 11:55 S 13 10.00 Fair CLR 69.8 53.6 57% 29.83 0.0
11 11:35 S 8 10.00 Partly Cloudy SCT060 SCT065 68 53.6 60% 29.84 0.0
11 11:15 S 7 10.00 Overcast BKN060 OVC065 64.4 51.8 64% 29.84 0.0
11 10:55 SE 7 10.00 Overcast OVC060 62.6 51.8 68% 29.85 0.0
11 10:35 S 7 G 17 10.00 Overcast SCT050 OVC055 60.8 50 68% 29.85 0.0
11 10:15 S 7 G 16 10.00 Overcast SCT048 OVC060 60.8 48.2 63% 29.85 0.0
11 09:55 SE 8 10.00 Overcast OVC060 59 50 72% 29.86 0.0
11 09:35 SE 8 10.00 Overcast OVC060 57.2 50 77% 29.87 0.0
11 09:15 E 10 10.00 Light Rain OVC060 57.2 51.8 82% 29.87 0.0
11 08:55 SE 8 7.00 Light Rain SCT048 OVC060 57.2 48.2 72% 29.89 0.0
11 08:35 E 5 10.00 Light Rain BKN060 OVC070 59 48.2 68% 29.9 0.0
11 08:15 Calm 10.00 Rain BKN060 OVC075 60.8 48.2 63% 29.9 0.0
11 07:55 S 3 10.00 Light Rain SCT049 BKN060 BKN075 59 48.2 68% 29.9 0.0
11 07:35 Calm 10.00 Light Rain SCT032 SCT040 BKN047 59 50 72% 29.9 0.0
11 07:15 Calm 10.00 Light Rain SCT030 SCT049 BKN090 60.8 46.4 59% 29.91 0.0
11 06:55 SE 3 10.00 Light Drizzle SCT080 62.6 44.6 52% 29.91 0.0
11 06:35 SE 3 10.00 Partly Cloudy SCT080 60.8 44.6 55% 29.91 0.0
11 06:15 Calm 10.00 Fair CLR 60.8 44.6 55% 29.92 0.0
11 05:35 Calm 10.00 Fair CLR 62.6 42.8 49% 29.92 0.0
11 05:15 S 3 10.00 Fair CLR 60.8 44.6 55% 29.91 0.0
11 04:55 SE 6 10.00 Fair CLR 60.8 44.6 55% 29.9 0.0
11 04:35 SE 8 10.00 Fair CLR 59 46.4 63% 29.9 0.0
11 04:15 E 7 10.00 Fair CLR 57.2 46.4 67% 29.9 0.0
11 03:55 E 5 10.00 Fair CLR 57.2 44.6 63% 29.92 0.0
11 03:35 Calm 10.00 Fair CLR 57.2 46.4 67% 29.92 0.0
11 03:15 Calm 10.00 Fair CLR 55.4 48.2 77% 29.92 0.0
11 02:55 E 3 10.00 Fair CLR 57.2 50 77% 29.93 0.0
11 02:35 Calm 10.00 Fair CLR 55.4 48.2 77% 29.94 0.0
11 02:15 Calm 10.00 Fair CLR 50 46.4 88% 29.95 0.0
11 01:55 Calm 10.00 Fair CLR 51.8 48.2 88% 29.95 0.0
11 01:35 Calm 10.00 Fair CLR 51.8 46.4 82% 29.95 0.0
11 01:15 Calm 10.00 Fair CLR 51.8 48.2 88% 29.96 0.0
11 00:55 Calm 10.00 Fair CLR 51.8 46.4 82% 29.96 0.0
11 00:35 Calm 10.00 Fair CLR 51.8 46.4 82% 29.96 0.0
11 00:15 Calm 10.00 Fair CLR 53.6 48.2 82% 29.97 0.0
10 23:55 Calm 10.00 Fair CLR 53.6 46.4 77% 29.97 0.0
10 23:35 Calm 10.00 Fair CLR 53.6 48.2 82% 29.97 0.0
10 23:15 Calm 10.00 Fair CLR 55.4 48.2 77% 29.97 0.0
10 22:55 Calm 10.00 Fair CLR 55.4 48.2 77% 29.98 0.0
10 22:35 Calm 10.00 Fair CLR 57.2 48.2 72% 29.98 0.0
10 22:15 Calm 10.00 Fair CLR 57.2 48.2 72% 29.97 0.0
10 21:55 Calm 10.00 Fair CLR 59 48.2 68% 29.96 0.0
10 21:35 Calm 10.00 Fair CLR 60.8 48.2 63% 29.96 0.0
10 21:15 Calm 10.00 Fair CLR 60.8 51.8 72% 29.95 0.0
10 20:55 Calm 10.00 Fair CLR 66.2 46.4 49% 29.95 0.0
10 20:35 Calm 10.00 Fair CLR 68 46.4 46% 29.94 0.0
10 20:15 Calm 10.00 Fair CLR 69.8 46.4 43% 29.95 0.0
10 19:55 SE 5 10.00 Fair CLR 71.6 46.4 41% 29.95 0.0
10 19:35 SE 5 10.00 Fair CLR 73.4 42.8 33% 29.95 0.0
10 19:15 Calm 10.00 Fair CLR 71.6 46.4 41% 29.95 0.0
10 18:55 Calm 10.00 Fair CLR 71.6 42.8 36% 29.96 0.0
10 18:35 S 3 10.00 Fair CLR 71.6 42.8 36% 29.96 0.0
10 18:15 S 5 10.00 Fair CLR 73.4 39.2 29% 29.96 0.0
10 17:55 SE 5 10.00 Fair CLR 73.4 39.2 29% 29.97 0.0
10 17:35 SW 5 10.00 Fair CLR 73.4 37.4 27% 29.98 0.0
10 17:15 S 6 10.00 Fair CLR 73.4 39.2 29% 29.98 0.0
10 16:55 S 6 10.00 Fair CLR 73.4 39.2 29% 29.99 0.0
10 16:35 SW 6 10.00 Fair CLR 73.4 39.2 29% 29.99 0.0
10 16:15 SE 6 10.00 Fair CLR 73.4 39.2 29% 29.99 0.0
10 15:55 E 3 10.00 Fair CLR 73.4 39.2 29% 29.99 0.0
10 15:35 S 3 10.00 Fair CLR 73.4 39.2 29% 30 0.0
10 15:15 SE 5 10.00 Fair CLR 73.4 41 31% 30.01 0.0
10 14:55 W 6 10.00 Fair CLR 73.4 39.2 29% 30.02 0.0
10 14:35 SW 3 10.00 Fair CLR 73.4 42.8 33% 30.02 0.0
10 14:15 Calm 10.00 Fair CLR 73.4 42.8 33% 30.02 0.0
10 13:55 SW 3 10.00 Fair CLR 71.6 42.8 36% 30.03 0.0
10 13:35 W 5 10.00 Fair CLR 71.6 44.6 38% 30.04 0.0
10 13:15 W 3 10.00 Fair CLR 71.6 42.8 36% 30.04 0.0
10 12:55 W 3 10.00 Fair CLR 71.6 42.8 36% 30.05 0.0
10 12:35 S 5 10.00 Fair CLR 69.8 44.6 40% 30.06 0.0
10 12:15 SW 6 10.00 Fair CLR 69.8 44.6 40% 30.06 0.0
10 11:55 NE 5 10.00 Fair CLR 69.8 41 35% 30.07 0.0
10 11:35 Calm 10.00 Fair CLR 66.2 46.4 49% 30.07 0.0
10 11:15 SE 5 10.00 Partly Cloudy SCT039 68 46.4 46% 30.07 0.0
10 10:55 Calm 10.00 Partly Cloudy SCT039 66.2 48.2 52% 30.08 0.0
10 10:35 SW 6 10.00 Partly Cloudy SCT037 66.2 48.2 52% 30.08 0.0
10 10:15 Calm 10.00 Fair CLR 64.4 48.2 56% 30.08 0.0
10 09:55 Calm 10.00 Fair CLR 64.4 48.2 56% 30.09 0.0
10 09:35 Calm 10.00 Fair CLR 62.6 48.2 60% 30.09 0.0
10 09:15 Calm 10.00 Fair CLR 62.6 48.2 60% 30.09 0.0
10 08:55 E 5 10.00 Fair CLR 60.8 48.2 63% 30.09 0.0
10 08:35 Calm 10.00 Fair CLR 60.8 48.2 63% 30.1 0.0
10 08:15 Calm 10.00 Fair CLR 57.2 48.2 72% 30.1 0.0
10 07:55 Calm 10.00 Fair CLR 57.2 48.2 72% 30.1 0.0
10 07:35 Calm 10.00 Fair CLR 57.2 48.2 72% 30.1 0.0
10 07:15 W 3 10.00 Fair CLR 55.4 48.2 77% 30.1 0.0
10 06:55 Calm 10.00 Fair CLR 53.6 48.2 82% 30.1 0.0
10 06:35 NW 3 10.00 Fair CLR 51.8 48.2 88% 30.09 0.0
10 06:15 Calm 10.00 Fair CLR 48.2 46.4 94% 30.08 0.0
10 05:55 Calm 10.00 Fair CLR 46.4 44.6 93% 30.08 0.0
10 05:35 Calm 10.00 Fair CLR 46.4 44.6 93% 30.07 0.0
10 05:15 Calm 10.00 Fair CLR 46.4 44.6 93% 30.06 0.0
10 04:55 Calm 10.00 Fair CLR 48.2 46.4 94% 30.06 0.0
10 04:35 Calm 10.00 Fair CLR 48.2 46.4 94% 30.06 0.0
10 04:15 Calm 10.00 Fair CLR 48.2 44.6 87% 30.07 0.0
10 03:55 Calm 10.00 Fair CLR 51.8 46.4 82% 30.07 0.0
10 03:35 Calm 10.00 Fair CLR 51.8 48.2 88% 30.06 0.0
10 03:15 Calm 10.00 Fair CLR 53.6 48.2 82% 30.06 0.0
10 02:55 Calm 10.00 Fair CLR 53.6 48.2 82% 30.06 0.0
10 02:35 N 5 10.00 Fair CLR 53.6 48.2 82% 30.06 0.0
10 02:15 N 6 10.00 Fair CLR 55.4 48.2 77% 30.06 0.0
10 01:55 N 5 10.00 Fair CLR 55.4 48.2 77% 30.06 0.0
10 01:35 N 6 10.00 Fair CLR 55.4 48.2 77% 30.06 0.0
10 01:15 N 7 10.00 Partly Cloudy SCT065 57.2 48.2 72% 30.06 0.0
10 00:55 NE 6 10.00 Partly Cloudy SCT065 57.2 48.2 72% 30.05 0.0
10 00:35 NE 6 10.00 Partly Cloudy SCT065 59 48.2 68% 30.05 0.0
10 00:15 NE 9 10.00 Overcast BKN043 OVC065 60.8 48.2 63% 30.05 0.0
09 23:55 NE 8 10.00 Overcast OVC039 60.8 48.2 63% 30.04 0.0
09 23:35 NE 10 G 16 10.00 Overcast SCT029 OVC037 60.8 50 68% 30.04 0.0
09 23:15 NE 9 10.00 Overcast SCT029 OVC040 62.6 50 64% 30.03 0.0
09 22:55 N 7 10.00 Overcast OVC042 62.6 50 64% 30.03 0.0
09 22:35 N 9 10.00 Overcast OVC042 64.4 50 60% 30.02 0.0
Date Time (cdt) Wind (mph) Vis. (mi.) Weather Sky Cond. Air Dwpt Max. Min. Relative Humidity Wind Chill (°F) Heat Index (°F) altimeter (in) sea level (mb) 1 hr 3 hr 6 hr
6 hour
Temperature (ºF) Pressure Precipitation (in)